DW9783 Weather Reports


time (UTC)temp
F
wind
direction
speed
knots
gust
knots
rain 1hr
in
rain 24hr
in
rain mn
in
humidity
%
barometer
mb
20260503053003 47 128 0.0 0.9 0.00 0.00 0.00 91 1018.3
20260503052004 46 128 0.0 0.9 0.00 0.00 0.00 92 1018.1
20260503051107 45 128 0.0 0.0 0.00 0.00 0.00 92 1018.2
20260503050106 45 0 0.0 0.0 0.00 0.00 0.00 91 1018.1
20260503045003 44 128 0.0 0.0 0.00 0.00 0.00 91 1018.1
20260503044003 44 128 0.0 0.0 0.00 0.00 0.00 90 1018.1
20260503043003 44 0 0.0 0.0 0.00 0.00 0.00 90 1018.0
20260503042107 44 128 0.0 0.0 0.00 0.00 0.00 90 1018.1
20260503041004 44 0 0.0 0.0 0.00 0.00 0.00 89 1018.1
20260503040107 44 128 0.0 0.0 0.00 0.00 0.00 89 1018.0
20260503035106 44 128 0.0 0.0 0.00 0.00 0.00 89 1018.0
20260503034003 44 128 0.0 0.9 0.00 0.00 0.00 89 1017.9
20260503033106 44 128 0.0 0.9 0.00 0.00 0.00 90 1017.9
20260503032107 44 128 0.0 0.9 0.00 0.00 0.00 90 1018.0
20260503031107 44 128 0.0 0.0 0.00 0.00 0.00 90 1018.0
20260503030106 44 128 0.0 0.0 0.00 0.00 0.00 89 1018.0
20260503025003 44 128 0.0 0.0 0.00 0.00 0.00 89 1018.1
20260503024003 44 0 0.0 0.0 0.00 0.00 0.00 89 1018.1
20260503023003 44 0 0.0 0.0 0.00 0.00 0.00 88 1018.2
20260503022004 44 128 0.0 0.0 0.00 0.00 0.00 88 1018.3
20260503021003 44 128 0.0 0.0 0.00 0.00 0.00 88 1018.3
20260503020003 45 128 0.0 0.0 0.00 0.00 0.00 87 1018.5
20260503015003 45 128 0.0 0.0 0.00 0.00 0.00 87 1018.5
20260503014106 45 128 0.0 0.0 0.00 0.00 0.00 87 1018.5
20260503013004 45 128 0.0 0.0 0.00 0.00 0.00 87 1018.6
20260503012107 45 128 0.0 0.0 0.00 0.00 0.00 87 1018.5
20260503011106 45 128 0.0 0.0 0.00 0.00 0.00 86 1018.6
20260503010106 45 128 0.0 0.0 0.00 0.00 0.00 86 1018.7
20260503005003 46 128 0.0 0.0 0.00 0.00 0.00 85 1018.7
20260503004004 46 128 0.0 0.0 0.00 0.00 0.00 85 1018.8
20260503003004 46 128 0.0 0.0 0.00 0.00 0.00 84 1018.9
20260503002106 46 128 0.0 0.0 0.00 0.00 0.00 84 1018.9
20260503001003 47 128 0.0 0.0 0.00 0.00 0.00 84 1018.9
20260503000003 47 128 0.0 0.0 0.00 0.00 0.00 83 1019.0
20260502235004 47 128 0.0 0.0 0.00 0.00 0.00 83 1019.0
20260502234003 48 0 0.0 0.0 0.00 0.00 0.00 81 1019.0
20260502233106 48 128 0.0 0.0 0.00 0.00 0.00 81 1019.1
20260502232003 48 128 0.0 0.0 0.00 0.00 0.00 80 1019.2
20260502231003 49 128 0.0 0.9 0.00 0.00 0.00 80 1019.3
20260502230004 48 128 0.0 0.0 0.00 0.00 0.00 81 1019.4
20260502225003 48 0 0.0 0.0 0.00 0.00 0.00 81 1019.5
20260502224003 48 128 0.0 0.0 0.00 0.00 0.00 80 1019.5
20260502223003 48 96 0.0 0.9 0.00 0.00 0.00 81 1019.6
20260502222107 48 97 0.0 1.7 0.00 0.00 0.00 81 1019.5
20260502221004 48 117 0.0 0.9 0.00 0.00 0.00 80 1019.6
20260502220046 48 117 0.0 0.0 0.00 0.00 0.00 80 1019.6
20260502215003 49 117 0.0 0.0 0.00 0.00 0.00 79 1019.5
20260502214106 49 117 0.0 0.0 0.00 0.00 0.00 79 1019.6
20260502213003 49 118 0.0 0.0 0.00 0.00 0.00 78 1019.6
20260502212106 50 117 0.0 0.0 0.00 0.00 0.00 78 1019.6
20260502211004 50 117 0.0 0.0 0.00 0.00 0.00 77 1019.7
20260502210107 50 117 0.0 0.0 0.00 0.00 0.00 76 1019.7
20260502205107 51 117 0.0 0.0 0.00 0.00 0.00 76 1019.8
20260502204003 51 119 0.0 1.7 0.00 0.00 0.00 75 1019.9
20260502203003 51 131 0.0 0.0 0.00 0.00 0.00 75 1020.0
20260502202003 52 131 0.0 0.0 0.00 0.00 0.00 74 1020.0
20260502201107 52 131 0.0 0.9 0.00 0.00 0.00 73 1019.9
20260502200107 52 131 0.0 0.9 0.00 0.00 0.00 73 1019.9
20260502195003 53 131 0.0 0.0 0.00 0.00 0.00 73 1019.8
20260502194003 53 131 0.0 0.9 0.00 0.00 0.00 71 1019.8
20260502193106 54 131 0.0 0.0 0.00 0.00 0.00 70 1019.8
20260502192004 55 131 0.0 0.9 0.00 0.00 0.00 69 1019.6
20260502191004 55 131 0.0 0.9 0.00 0.00 0.00 68 1019.6
20260502190004 56 131 0.0 0.9 0.00 0.00 0.00 67 1019.6
20260502185003 57 131 0.0 0.0 0.00 0.00 0.00 65 1019.6
20260502184106 58 132 0.0 1.7 0.00 0.00 0.00 63 1019.5
20260502182107 61 0 0.0 0.0 0.00 0.00 0.00 59 1019.3
20260502181004 63 134 0.0 0.9 0.00 0.00 0.00 57 1019.2
20260502180106 65 134 0.0 0.9 0.00 0.00 0.00 54 1019.2
20260502164004 73 134 0.9 1.7 0.00 0.00 0.00 34 1019.3
20260502163003 73 89 1.7 1.7 0.00 0.00 0.00 36 1019.4
20260502162003 72 165 2.6 4.3 0.00 0.00 0.00 36 1019.4
20260502161107 72 172 3.5 6.1 0.00 0.00 0.00 35 1019.5
20260502151107 73 165 3.5 7.0 0.00 0.00 0.00 35 1020.1
20260502150107 73 167 2.6 6.1 0.00 0.00 0.00 35 1020.2
20260502123107 73 171 3.5 10.4 0.00 0.00 0.00 40 1021.5
20260502122107 72 186 3.5 11.3 0.00 0.00 0.00 40 1021.7
20260502121003 71 167 2.6 11.3 0.00 0.00 0.00 40 1021.8
20260502120106 71 161 1.7 5.2 0.00 0.00 0.00 43 1021.8
20260502115004 71 168 3.5 7.8 0.00 0.00 0.00 40 1022.0
20260502114107 71 166 2.6 6.1 0.00 0.00 0.00 43 1022.1
20260502113004 71 200 2.6 7.0 0.00 0.00 0.00 41 1022.2
20260502112003 70 175 4.3 6.1 0.00 0.00 0.00 42 1022.3
20260502111003 70 177 4.3 9.6 0.00 0.00 0.00 42 1022.3
20260502110004 70 157 3.5 12.2 0.00 0.00 0.00 43 1022.5
20260502105107 69 167 4.3 12.2 0.00 0.00 0.00 42 1022.7
20260502104106 69 170 3.5 7.8 0.00 0.00 0.00 46 1022.8
20260502103004 69 174 2.6 7.0 0.00 0.00 0.00 44 1023.0
20260502102107 69 176 3.5 7.0 0.00 0.00 0.00 43 1023.1
20260502101003 69 186 2.6 7.0 0.00 0.00 0.00 46 1023.2
20260502100106 68 160 3.5 9.6 0.00 0.00 0.00 44 1023.4
20260502091004 67 168 2.6 8.7 0.00 0.00 0.00 46 1023.7
20260502071106 62 230 2.6 6.1 0.00 0.00 0.00 48 1024.2
20260502070004 61 247 3.5 10.4 0.00 0.00 0.00 50 1024.2
20260502065107 61 252 3.5 8.7 0.00 0.00 0.00 50 1024.2
20260502064106 60 238 2.6 7.8 0.00 0.00 0.00 53 1024.2
20260502063003 59 243 1.7 6.1 0.00 0.00 0.00 53 1024.2
20260502062107 58 250 1.7 7.0 0.00 0.00 0.00 55 1024.3
20260502061107 58 230 1.7 6.1 0.00 0.00 0.00 56 1024.3
20260502060003 56 252 0.9 5.2 0.00 0.00 0.00 58 1024.2
20260502055003 55 138 0.0 1.7 0.00 0.00 0.00 60 1024.3
20260502054004 55 48 0.0 1.7 0.00 0.00 0.00 60 1024.4